contact:dominique.lefevre@mio.osupytheas.fr, maurice.libes@osupytheas.fr, didier.mallarino@osupytheas.fr
Project:EMSO http://www.emso-fr.org/EMSO-France
Depth: 2436.0 m
Title:EMSO Ligure Ouest : Data MII capteur CSTAR
DateTime,Latitude,Longitude,Instrument_Serial,Reference_Counts,Signal_Counts,Corrected_Signal_raw_counts,Calculated_Beam_c_inverse_meters,Internal_thermistor_counts
DateTime,Latitude,Longitude,Instrument_Serial,Reference_Counts,Signal_Counts,Corrected_Signal_raw_counts,Calculated_Beam_c_inverse_meters,Internal_thermistor_counts
2023-06-17T00:00:24,42.805,6.029,CST-1368DR,4287,4682,11594,01.191,552
2023-06-17T00:03:25,42.805,6.029,CST-1368DR,4287,4682,11594,01.191,552
2023-06-17T00:06:27,42.805,6.029,CST-1368DR,4287,4682,11593,01.192,552
2023-06-17T00:10:06,42.805,6.029,CST-1368DR,4287,4682,11594,01.191,552
2023-06-17T00:13:08,42.805,6.029,CST-1368DR,4287,4681,11590,01.193,552
2023-06-17T00:16:09,42.805,6.029,CST-1368DR,4287,4682,11593,01.192,552
2023-06-17T00:19:11,42.805,6.029,CST-1368DR,4287,4680,11589,01.193,552
2023-06-17T00:22:12,42.805,6.029,CST-1368DR,4287,4680,11587,01.194,552
2023-06-17T00:25:14,42.805,6.029,CST-1368DR,4287,4681,11591,01.192,552
2023-06-17T00:28:15,42.805,6.029,CST-1368DR,4287,4682,11593,01.192,552
2023-06-17T00:31:17,42.805,6.029,CST-1368DR,4287,4680,11589,01.193,552
2023-06-17T00:34:19,42.805,6.029,CST-1368DR,4287,4680,11589,01.193,552
2023-06-17T00:37:20,42.805,6.029,CST-1368DR,4287,4682,11592,01.192,552
2023-06-17T00:40:22,42.805,6.029,CST-1368DR,4287,4680,11589,01.193,552
2023-06-17T00:43:23,42.805,6.029,CST-1368DR,4287,4680,11589,01.193,552
2023-06-17T00:46:25,42.805,6.029,CST-1368DR,4287,4680,11587,01.194,552
2023-06-17T00:49:26,42.805,6.029,CST-1368DR,4287,4680,11589,01.193,552
2023-06-17T00:52:28,42.805,6.029,CST-1368DR,4287,4680,11587,01.194,552
2023-06-17T00:55:30,42.805,6.029,CST-1368DR,4287,4680,11588,01.193,552
2023-06-17T00:58:31,42.805,6.029,CST-1368DR,4287,4680,11587,01.194,552
2023-06-17T01:01:33,42.805,6.029,CST-1368DR,4287,4680,11589,01.193,552
2023-06-17T01:04:34,42.805,6.029,CST-1368DR,4287,4681,11590,01.193,552
2023-06-17T01:07:36,42.805,6.029,CST-1368DR,4287,4682,11594,01.191,552
2023-06-17T01:10:38,42.805,6.029,CST-1368DR,4287,4681,11591,01.192,552
2023-06-17T01:13:39,42.805,6.029,CST-1368DR,4287,4681,11591,01.192,552
2023-06-17T01:16:41,42.805,6.029,CST-1368DR,4287,4682,11592,01.192,552
2023-06-17T01:19:42,42.805,6.029,CST-1368DR,4287,4683,11596,01.191,552
2023-06-17T01:22:44,42.805,6.029,CST-1368DR,4287,4682,11593,01.192,552
2023-06-17T01:25:45,42.805,6.029,CST-1368DR,4287,4682,11594,01.191,552
2023-06-17T01:28:47,42.805,6.029,CST-1368DR,4287,4682,11592,01.192,552
2023-06-17T01:31:49,42.805,6.029,CST-1368DR,4287,4680,11589,01.193,552
2023-06-17T01:34:50,42.805,6.029,CST-1368DR,4287,4682,11593,01.192,552
2023-06-17T01:37:52,42.805,6.029,CST-1368DR,4287,4684,11597,01.190,552
2023-06-17T01:40:53,42.805,6.029,CST-1368DR,4287,4682,11594,01.191,552
2023-06-17T01:43:55,42.805,6.029,CST-1368DR,4287,4683,11595,01.191,552
2023-06-17T01:46:56,42.805,6.029,CST-1368DR,4287,4683,11596,01.191,552
2023-06-17T01:49:58,42.805,6.029,CST-1368DR,4287,4683,11595,01.191,552
2023-06-17T01:53:00,42.805,6.029,CST-1368DR,4287,4682,11592,01.192,552
2023-06-17T01:56:01,42.805,6.029,CST-1368DR,4287,4682,11594,01.191,552
2023-06-17T01:59:03,42.805,6.029,CST-1368DR,4287,4684,11599,01.190,552
2023-06-17T02:02:04,42.805,6.029,CST-1368DR,4287,4683,11595,01.191,552
2023-06-17T02:05:06,42.805,6.029,CST-1368DR,4287,4682,11593,01.192,552
2023-06-17T02:08:08,42.805,6.029,CST-1368DR,4287,4682,11594,01.191,552
2023-06-17T02:11:09,42.805,6.029,CST-1368DR,4287,4683,11595,01.191,552
2023-06-17T02:14:11,42.805,6.029,CST-1368DR,4287,4683,11596,01.191,552
2023-06-17T02:17:12,42.805,6.029,CST-1368DR,4287,4682,11593,01.192,552
2023-06-17T02:20:14,42.805,6.029,CST-1368DR,4287,4683,11595,01.191,552
2023-06-17T02:23:15,42.805,6.029,CST-1368DR,4287,4683,11595,01.191,552
2023-06-17T02:26:17,42.805,6.029,CST-1368DR,4287,4683,11595,01.191,552
2023-06-17T02:29:19,42.805,6.029,CST-1368DR,4287,4682,11594,01.191,552
2023-06-17T02:32:20,42.805,6.029,CST-1368DR,4287,4683,11595,01.191,552
2023-06-17T02:35:22,42.805,6.029,CST-1368DR,4287,4682,11592,01.192,552
2023-06-17T02:38:23,42.805,6.029,CST-1368DR,4287,4680,11589,01.193,552
2023-06-17T02:41:25,42.805,6.029,CST-1368DR,4287,4684,11598,01.190,552
2023-06-17T02:44:26,42.805,6.029,CST-1368DR,4287,4683,11597,01.190,552
2023-06-17T02:47:28,42.805,6.029,CST-1368DR,4287,4682,11594,01.191,552
2023-06-17T02:50:30,42.805,6.029,CST-1368DR,4287,4683,11596,01.191,552
2023-06-17T02:53:31,42.805,6.029,CST-1368DR,4287,4682,11592,01.192,552
2023-06-17T02:56:33,42.805,6.029,CST-1368DR,4287,4682,11593,01.192,552
2023-06-17T02:59:34,42.805,6.029,CST-1368DR,4287,4683,11595,01.191,552
2023-06-17T03:02:36,42.805,6.029,CST-1368DR,4287,4683,11597,01.190,552
2023-06-17T03:05:38,42.805,6.029,CST-1368DR,4287,4684,11598,01.190,552
2023-06-17T03:08:39,42.805,6.029,CST-1368DR,4287,4684,11597,01.190,552
2023-06-17T03:11:41,42.805,6.029,CST-1368DR,4287,4685,11600,01.189,552
2023-06-17T03:14:42,42.805,6.029,CST-1368DR,4287,4684,11597,01.190,552
2023-06-17T03:17:44,42.805,6.029,CST-1368DR,4287,4684,11599,01.190,552
2023-06-17T03:20:45,42.805,6.029,CST-1368DR,4287,4684,11597,01.190,552
2023-06-17T03:23:47,42.805,6.029,CST-1368DR,4287,4682,11592,01.192,552
2023-06-17T03:26:49,42.805,6.029,CST-1368DR,4287,4683,11597,01.190,552
2023-06-17T03:29:50,42.805,6.029,CST-1368DR,4287,4681,11592,01.192,552
2023-06-17T03:32:52,42.805,6.029,CST-1368DR,4287,4684,11597,01.190,552
2023-06-17T03:35:53,42.805,6.029,CST-1368DR,4287,4684,11597,01.190,552
2023-06-17T03:38:55,42.805,6.029,CST-1368DR,4287,4683,11596,01.191,552
2023-06-17T03:41:56,42.805,6.029,CST-1368DR,4287,4682,11594,01.191,552
2023-06-17T03:44:58,42.805,6.029,CST-1368DR,4287,4683,11596,01.191,552
2023-06-17T03:48:00,42.805,6.029,CST-1368DR,4287,4683,11597,01.190,552
2023-06-17T03:51:01,42.805,6.029,CST-1368DR,4287,4684,11598,01.190,552
2023-06-17T03:54:03,42.805,6.029,CST-1368DR,4287,4684,11597,01.190,552
2023-06-17T03:57:04,42.805,6.029,CST-1368DR,4287,4683,11595,01.191,552
2023-06-17T04:00:06,42.805,6.029,CST-1368DR,4287,4683,11595,01.191,552
2023-06-17T04:03:08,42.805,6.029,CST-1368DR,4287,4684,11598,01.190,552
2023-06-17T04:06:09,42.805,6.029,CST-1368DR,4286,4684,11602,01.188,552
2023-06-17T04:09:11,42.805,6.029,CST-1368DR,4287,4683,11595,01.191,552
2023-06-17T04:12:12,42.805,6.029,CST-1368DR,4287,4683,11595,01.191,552
2023-06-17T04:15:14,42.805,6.029,CST-1368DR,4286,4682,11597,01.190,552
2023-06-17T04:18:15,42.805,6.029,CST-1368DR,4287,4683,11597,01.190,552
2023-06-17T04:21:17,42.805,6.029,CST-1368DR,4286,4685,11603,01.188,552
2023-06-17T04:24:19,42.805,6.029,CST-1368DR,4287,4684,11597,01.190,552
2023-06-17T04:27:20,42.805,6.029,CST-1368DR,4287,4683,11595,01.191,552
2023-06-17T04:30:22,42.805,6.029,CST-1368DR,4287,4684,11597,01.190,552
2023-06-17T04:33:24,42.805,6.029,CST-1368DR,4287,4684,11597,01.190,552
2023-06-17T04:36:25,42.805,6.029,CST-1368DR,4286,4682,11596,01.191,552
2023-06-17T04:39:27,42.805,6.029,CST-1368DR,4287,4682,11593,01.192,552
2023-06-17T04:42:29,42.805,6.029,CST-1368DR,4287,4683,11597,01.190,552
2023-06-17T04:45:30,42.805,6.029,CST-1368DR,4287,4683,11597,01.190,552
2023-06-17T04:48:32,42.805,6.029,CST-1368DR,4287,4683,11596,01.191,552
2023-06-17T04:51:33,42.805,6.029,CST-1368DR,4287,4682,11594,01.191,552
2023-06-17T04:54:35,42.805,6.029,CST-1368DR,4287,4683,11597,01.190,552
2023-06-17T04:57:36,42.805,6.029,CST-1368DR,4287,4685,11600,01.189,552
2023-06-17T05:00:38,42.805,6.029,CST-1368DR,4287,4685,11601,01.189,552
2023-06-17T05:03:40,42.805,6.029,CST-1368DR,4287,4683,11597,01.190,552
2023-06-17T05:06:41,42.805,6.029,CST-1368DR,4286,4683,11599,01.190,552
2023-06-17T05:09:43,42.805,6.029,CST-1368DR,4287,4683,11595,01.191,552
2023-06-17T05:12:44,42.805,6.029,CST-1368DR,4286,4686,11605,01.187,552
2023-06-17T05:15:46,42.805,6.029,CST-1368DR,4287,4685,11600,01.189,552
2023-06-17T05:18:48,42.805,6.029,CST-1368DR,4286,4684,11601,01.189,552
2023-06-17T05:21:49,42.805,6.029,CST-1368DR,4287,4684,11599,01.190,552
2023-06-17T05:24:51,42.805,6.029,CST-1368DR,4287,4682,11594,01.191,552
2023-06-17T05:27:52,42.805,6.029,CST-1368DR,4287,4683,11597,01.190,552
2023-06-17T05:30:54,42.805,6.029,CST-1368DR,4286,4685,11602,01.188,552
2023-06-17T05:33:55,42.805,6.029,CST-1368DR,4287,4683,11595,01.191,552
2023-06-17T05:36:57,42.805,6.029,CST-1368DR,4287,4684,11599,01.190,552
2023-06-17T05:39:59,42.805,6.029,CST-1368DR,4287,4685,11600,01.189,552
2023-06-17T05:43:00,42.805,6.029,CST-1368DR,4286,4684,11600,01.189,552
2023-06-17T05:46:02,42.805,6.029,CST-1368DR,4286,4684,11600,01.189,552
2023-06-17T05:49:03,42.805,6.029,CST-1368DR,4286,4683,11599,01.190,552
2023-06-17T05:52:05,42.805,6.029,CST-1368DR,4286,4683,11598,01.190,552
2023-06-17T05:55:07,42.805,6.029,CST-1368DR,4286,4684,11601,01.189,552
2023-06-17T05:58:08,42.805,6.029,CST-1368DR,4286,4682,11596,01.191,552
2023-06-17T06:01:10,42.805,6.029,CST-1368DR,4286,4682,11596,01.191,552
2023-06-17T06:04:11,42.805,6.029,CST-1368DR,4287,4684,11599,01.190,552
2023-06-17T06:07:13,42.805,6.029,CST-1368DR,4286,4683,11599,01.190,552
2023-06-17T06:10:14,42.805,6.029,CST-1368DR,4287,4685,11601,01.189,552
2023-06-17T06:13:16,42.805,6.029,CST-1368DR,4287,4684,11599,01.190,552
2023-06-17T06:16:18,42.805,6.029,CST-1368DR,4287,4684,11599,01.190,552
2023-06-17T06:19:19,42.805,6.029,CST-1368DR,4286,4683,11599,01.190,552
2023-06-17T06:22:21,42.805,6.029,CST-1368DR,4286,4682,11596,01.191,552
2023-06-17T06:25:22,42.805,6.029,CST-1368DR,4286,4684,11600,01.189,552
2023-06-17T06:28:24,42.805,6.029,CST-1368DR,4287,4684,11598,01.190,552
2023-06-17T06:31:26,42.805,6.029,CST-1368DR,4287,4683,11596,01.191,552
2023-06-17T06:34:28,42.805,6.029,CST-1368DR,4286,4684,11600,01.189,552
2023-06-17T06:37:29,42.805,6.029,CST-1368DR,4286,4684,11601,01.189,552
2023-06-17T06:40:31,42.805,6.029,CST-1368DR,4286,4682,11597,01.190,552
2023-06-17T06:43:32,42.805,6.029,CST-1368DR,4287,4682,11592,01.192,552
2023-06-17T06:46:34,42.805,6.029,CST-1368DR,4286,4683,11599,01.190,552
2023-06-17T06:49:36,42.805,6.029,CST-1368DR,4287,4683,11595,01.191,552
2023-06-17T06:52:37,42.805,6.029,CST-1368DR,4287,4682,11593,01.192,552
2023-06-17T06:55:39,42.805,6.029,CST-1368DR,4287,4683,11595,01.191,552
2023-06-17T06:58:40,42.805,6.029,CST-1368DR,4286,4682,11595,01.191,552
2023-06-17T07:01:42,42.805,6.029,CST-1368DR,4286,4682,11595,01.191,552
2023-06-17T07:04:44,42.805,6.029,CST-1368DR,4287,4682,11594,01.191,552
2023-06-17T07:07:45,42.805,6.029,CST-1368DR,4287,4683,11595,01.191,552
2023-06-17T07:10:47,42.805,6.029,CST-1368DR,4287,4683,11595,01.191,552
2023-06-17T07:13:48,42.805,6.029,CST-1368DR,4286,4683,11599,01.190,552
2023-06-17T07:16:50,42.805,6.029,CST-1368DR,4286,4683,11599,01.190,552
2023-06-17T07:19:51,42.805,6.029,CST-1368DR,4286,4683,11599,01.190,552
2023-06-17T07:22:53,42.805,6.029,CST-1368DR,4287,4682,11594,01.191,552
2023-06-17T07:25:55,42.805,6.029,CST-1368DR,4287,4684,11597,01.190,552
2023-06-17T07:28:56,42.805,6.029,CST-1368DR,4286,4683,11597,01.190,552
2023-06-17T07:31:58,42.805,6.029,CST-1368DR,4286,4683,11599,01.190,552
2023-06-17T07:34:59,42.805,6.029,CST-1368DR,4287,4683,11597,01.190,552
2023-06-17T07:38:01,42.805,6.029,CST-1368DR,4286,4683,11599,01.190,552
2023-06-17T07:41:03,42.805,6.029,CST-1368DR,4286,4684,11601,01.189,552
2023-06-17T07:44:04,42.805,6.029,CST-1368DR,4287,4684,11597,01.190,552
2023-06-17T07:47:06,42.805,6.029,CST-1368DR,4287,4682,11594,01.191,552
2023-06-17T07:50:07,42.805,6.029,CST-1368DR,4286,4682,11596,01.191,552
2023-06-17T07:53:09,42.805,6.029,CST-1368DR,4286,4682,11596,01.191,552
2023-06-17T07:56:10,42.805,6.029,CST-1368DR,4286,4684,11600,01.189,552
2023-06-17T07:59:12,42.805,6.029,CST-1368DR,4287,4683,11596,01.191,552
2023-06-17T08:02:14,42.805,6.029,CST-1368DR,4286,4683,11599,01.190,552
2023-06-17T08:05:15,42.805,6.029,CST-1368DR,4286,4683,11597,01.190,552
2023-06-17T08:08:17,42.805,6.029,CST-1368DR,4286,4682,11597,01.190,552
2023-06-17T08:11:18,42.805,6.029,CST-1368DR,4286,4683,11597,01.190,552
2023-06-17T08:14:20,42.805,6.029,CST-1368DR,4286,4684,11602,01.188,552
2023-06-17T08:17:21,42.805,6.029,CST-1368DR,4286,4682,11596,01.191,552
2023-06-17T08:20:23,42.805,6.029,CST-1368DR,4286,4683,11599,01.190,552
2023-06-17T08:23:25,42.805,6.029,CST-1368DR,4286,4684,11602,01.188,552
2023-06-17T08:26:26,42.805,6.029,CST-1368DR,4286,4684,11602,01.188,552
2023-06-17T08:29:28,42.805,6.029,CST-1368DR,4286,4683,11599,01.190,552
2023-06-17T08:32:29,42.805,6.029,CST-1368DR,4286,4682,11596,01.191,552
2023-06-17T08:35:31,42.805,6.029,CST-1368DR,4286,4682,11597,01.190,552
2023-06-17T08:38:32,42.805,6.029,CST-1368DR,4286,4682,11596,01.191,552
2023-06-17T08:41:34,42.805,6.029,CST-1368DR,4286,4680,11592,01.192,552
2023-06-17T08:44:35,42.805,6.029,CST-1368DR,4286,4682,11596,01.191,552
2023-06-17T08:47:37,42.805,6.029,CST-1368DR,4286,4682,11595,01.191,552
2023-06-17T08:50:38,42.805,6.029,CST-1368DR,4286,4683,11599,01.190,552
2023-06-17T08:53:40,42.805,6.029,CST-1368DR,4286,4683,11599,01.190,552
2023-06-17T08:56:42,42.805,6.029,CST-1368DR,4286,4682,11597,01.190,552
2023-06-17T08:59:43,42.805,6.029,CST-1368DR,4286,4683,11599,01.190,552
2023-06-17T09:02:45,42.805,6.029,CST-1368DR,4286,4682,11596,01.191,552
2023-06-17T09:05:46,42.805,6.029,CST-1368DR,4286,4682,11597,01.190,552
2023-06-17T09:08:48,42.805,6.029,CST-1368DR,4286,4679,11589,01.193,552
2023-06-17T09:11:49,42.805,6.029,CST-1368DR,4286,4680,11590,01.193,552
2023-06-17T09:14:51,42.805,6.029,CST-1368DR,4286,4680,11590,01.193,552
2023-06-17T09:17:53,42.805,6.029,CST-1368DR,4286,4682,11596,01.191,552
2023-06-17T09:20:54,42.805,6.029,CST-1368DR,4286,4682,11595,01.191,552
2023-06-17T09:23:56,42.805,6.029,CST-1368DR,4286,4681,11594,01.191,552
2023-06-17T09:26:57,42.805,6.029,CST-1368DR,4286,4682,11596,01.191,552
2023-06-17T09:29:59,42.805,6.029,CST-1368DR,4286,4679,11589,01.193,552
2023-06-17T09:33:01,42.805,6.029,CST-1368DR,4286,4679,11589,01.193,552
2023-06-17T09:36:02,42.805,6.029,CST-1368DR,4286,4682,11595,01.191,552
2023-06-17T09:39:04,42.805,6.029,CST-1368DR,4286,4681,11593,01.192,552
2023-06-17T09:42:05,42.805,6.029,CST-1368DR,4286,4680,11590,01.193,552
2023-06-17T09:45:07,42.805,6.029,CST-1368DR,4286,4681,11593,01.192,552
2023-06-17T09:48:08,42.805,6.029,CST-1368DR,4286,4681,11594,01.191,552
2023-06-17T09:51:10,42.805,6.029,CST-1368DR,4286,4679,11589,01.193,552
2023-06-17T09:54:12,42.805,6.029,CST-1368DR,4286,4682,11596,01.191,552
2023-06-17T09:57:13,42.805,6.029,CST-1368DR,4286,4675,11579,01.196,552
2023-06-17T10:00:15,42.805,6.029,CST-1368DR,4286,4681,11594,01.191,552
2023-06-17T10:03:16,42.805,6.029,CST-1368DR,4286,4683,11597,01.190,552
2023-06-17T10:06:18,42.805,6.029,CST-1368DR,4286,4682,11597,01.190,552
2023-06-17T10:09:19,42.805,6.029,CST-1368DR,4286,4682,11595,01.191,552
2023-06-17T10:12:21,42.805,6.029,CST-1368DR,4286,4682,11596,01.191,552
2023-06-17T10:15:23,42.805,6.029,CST-1368DR,4286,4682,11596,01.191,552
2023-06-17T10:18:24,42.805,6.029,CST-1368DR,4286,4683,11598,01.190,552
2023-06-17T10:21:26,42.805,6.029,CST-1368DR,4286,4682,11595,01.191,552
2023-06-17T10:24:27,42.805,6.029,CST-1368DR,4286,4681,11594,01.191,552
2023-06-17T10:27:29,42.805,6.029,CST-1368DR,4286,4683,11597,01.190,552
2023-06-17T10:30:32,42.805,6.029,CST-1368DR,4286,4681,11594,01.191,552
2023-06-17T10:33:33,42.805,6.029,CST-1368DR,4286,4684,11601,01.189,552
2023-06-17T10:36:35,42.805,6.029,CST-1368DR,4286,4679,11587,01.194,552
2023-06-17T10:39:36,42.805,6.029,CST-1368DR,4286,4682,11596,01.191,552
2023-06-17T10:42:38,42.805,6.029,CST-1368DR,4286,4684,11602,01.188,552
2023-06-17T10:45:39,42.805,6.029,CST-1368DR,4286,4682,11596,01.191,552
2023-06-17T10:48:41,42.805,6.029,CST-1368DR,4286,4683,11598,01.190,552
2023-06-17T10:51:43,42.805,6.029,CST-1368DR,4287,4683,11596,01.191,552
2023-06-17T10:54:44,42.805,6.029,CST-1368DR,4286,4683,11599,01.190,552
2023-06-17T10:57:46,42.805,6.029,CST-1368DR,4286,4683,11598,01.190,552
2023-06-17T11:00:47,42.805,6.029,CST-1368DR,4286,4682,11596,01.191,552
2023-06-17T11:03:49,42.805,6.029,CST-1368DR,4286,4687,11609,01.186,552
2023-06-17T11:06:51,42.805,6.029,CST-1368DR,4286,4687,11608,01.186,552
2023-06-17T11:09:52,42.805,6.029,CST-1368DR,4286,4688,11612,01.185,552
2023-06-17T11:12:54,42.805,6.029,CST-1368DR,4286,4686,11607,01.187,552
2023-06-17T11:15:55,42.805,6.029,CST-1368DR,4286,4688,11610,01.186,552
2023-06-17T11:18:57,42.805,6.029,CST-1368DR,4286,4686,11606,01.187,552
2023-06-17T11:21:58,42.805,6.029,CST-1368DR,4286,4686,11607,01.187,552
2023-06-17T11:25:00,42.805,6.029,CST-1368DR,4286,4684,11602,01.188,552
2023-06-17T11:28:02,42.805,6.029,CST-1368DR,4286,4688,11612,01.185,552
2023-06-17T11:31:03,42.805,6.029,CST-1368DR,4286,4688,11610,01.186,552
2023-06-17T11:34:05,42.805,6.029,CST-1368DR,4286,4687,11609,01.186,552
2023-06-17T11:37:06,42.805,6.029,CST-1368DR,4286,4684,11602,01.188,552
2023-06-17T11:40:08,42.805,6.029,CST-1368DR,4286,4687,11609,01.186,552
2023-06-17T11:43:09,42.805,6.029,CST-1368DR,4286,4687,11609,01.186,552
2023-06-17T11:46:11,42.805,6.029,CST-1368DR,4286,4689,11612,01.185,552
2023-06-17T11:49:13,42.805,6.029,CST-1368DR,4286,4689,11613,01.185,552
2023-06-17T11:52:14,42.805,6.029,CST-1368DR,4286,4686,11605,01.187,552
2023-06-17T11:55:16,42.805,6.029,CST-1368DR,4286,4688,11611,01.185,552
2023-06-17T11:58:17,42.805,6.029,CST-1368DR,4286,4686,11605,01.187,552
2023-06-17T12:01:19,42.805,6.029,CST-1368DR,4286,4685,11604,01.188,552
2023-06-17T12:04:21,42.805,6.029,CST-1368DR,4286,4685,11603,01.188,552
2023-06-17T12:07:22,42.805,6.029,CST-1368DR,4286,4685,11602,01.188,552
2023-06-17T12:10:24,42.805,6.029,CST-1368DR,4286,4684,11600,01.189,552
2023-06-17T12:13:25,42.805,6.029,CST-1368DR,4286,4683,11599,01.190,552
2023-06-17T12:16:27,42.805,6.029,CST-1368DR,4286,4684,11601,01.189,552
2023-06-17T12:19:28,42.805,6.029,CST-1368DR,4286,4683,11598,01.190,552
2023-06-17T12:22:30,42.805,6.029,CST-1368DR,4286,4683,11599,01.190,552
2023-06-17T12:25:32,42.805,6.029,CST-1368DR,4286,4683,11599,01.190,552
2023-06-17T12:28:33,42.805,6.029,CST-1368DR,4286,4683,11597,01.190,552
2023-06-17T12:31:35,42.805,6.029,CST-1368DR,4286,4680,11592,01.192,552
2023-06-17T12:34:36,42.805,6.029,CST-1368DR,4286,4682,11596,01.191,552
2023-06-17T12:37:38,42.805,6.029,CST-1368DR,4286,4682,11596,01.191,552
2023-06-17T12:40:39,42.805,6.029,CST-1368DR,4286,4683,11597,01.190,552
2023-06-17T12:43:41,42.805,6.029,CST-1368DR,4286,4682,11595,01.191,552
2023-06-17T12:46:43,42.805,6.029,CST-1368DR,4286,4682,11595,01.191,552
2023-06-17T12:49:44,42.805,6.029,CST-1368DR,4286,4687,11608,01.186,552
2023-06-17T12:52:46,42.805,6.029,CST-1368DR,4286,4686,11605,01.187,552
2023-06-17T12:55:47,42.805,6.029,CST-1368DR,4286,4683,11599,01.190,552
2023-06-17T12:58:49,42.805,6.029,CST-1368DR,4286,4681,11594,01.191,552
2023-06-17T13:01:50,42.805,6.029,CST-1368DR,4286,4681,11593,01.192,552
2023-06-17T13:04:52,42.805,6.029,CST-1368DR,4286,4682,11596,01.191,552
2023-06-17T13:07:54,42.805,6.029,CST-1368DR,4286,4682,11596,01.191,552
2023-06-17T13:10:55,42.805,6.029,CST-1368DR,4286,4681,11593,01.192,552
2023-06-17T13:13:57,42.805,6.029,CST-1368DR,4286,4682,11595,01.191,552
2023-06-17T13:16:58,42.805,6.029,CST-1368DR,4286,4680,11590,01.193,552
2023-06-17T13:20:00,42.805,6.029,CST-1368DR,4286,4682,11595,01.191,552
2023-06-17T13:23:02,42.805,6.029,CST-1368DR,4286,4679,11588,01.193,552
2023-06-17T13:26:03,42.805,6.029,CST-1368DR,4286,4681,11593,01.192,552
2023-06-17T13:29:05,42.805,6.029,CST-1368DR,4286,4680,11591,01.192,552
2023-06-17T13:32:06,42.805,6.029,CST-1368DR,4286,4680,11591,01.192,552
2023-06-17T13:35:08,42.805,6.029,CST-1368DR,4286,4681,11594,01.191,552
2023-06-17T13:38:09,42.805,6.029,CST-1368DR,4286,4681,11593,01.192,552
2023-06-17T13:41:11,42.805,6.029,CST-1368DR,4286,4680,11591,01.192,552
2023-06-17T13:44:13,42.805,6.029,CST-1368DR,4286,4679,11589,01.193,552
2023-06-17T13:47:14,42.805,6.029,CST-1368DR,4286,4679,11589,01.193,552
2023-06-17T13:50:16,42.805,6.029,CST-1368DR,4286,4679,11587,01.194,552
2023-06-17T13:53:17,42.805,6.029,CST-1368DR,4286,4679,11589,01.193,552
2023-06-17T13:56:19,42.805,6.029,CST-1368DR,4286,4680,11592,01.192,552
2023-06-17T13:59:20,42.805,6.029,CST-1368DR,4286,4681,11594,01.191,552
2023-06-17T14:02:22,42.805,6.029,CST-1368DR,4286,4680,11592,01.192,552
2023-06-17T14:05:24,42.805,6.029,CST-1368DR,4286,4681,11594,01.191,552
2023-06-17T14:08:25,42.805,6.029,CST-1368DR,4286,4685,11602,01.188,552
2023-06-17T14:11:27,42.805,6.029,CST-1368DR,4286,4680,11591,01.192,552
2023-06-17T14:14:28,42.805,6.029,CST-1368DR,4286,4680,11590,01.193,552
2023-06-17T14:17:30,42.805,6.029,CST-1368DR,4286,4680,11590,01.193,552
2023-06-17T14:20:32,42.805,6.029,CST-1368DR,4286,4679,11589,01.193,552
2023-06-17T14:23:33,42.805,6.029,CST-1368DR,4286,4679,11588,01.193,552
2023-06-17T14:26:35,42.805,6.029,CST-1368DR,4286,4679,11587,01.194,552
2023-06-17T14:29:36,42.805,6.029,CST-1368DR,4286,4679,11587,01.194,552
2023-06-17T14:32:38,42.805,6.029,CST-1368DR,4286,4678,11585,01.194,552
2023-06-17T14:35:40,42.805,6.029,CST-1368DR,4286,4678,11585,01.194,552
2023-06-17T14:38:41,42.805,6.029,CST-1368DR,4286,4678,11585,01.194,552
2023-06-17T14:41:43,42.805,6.029,CST-1368DR,4286,4685,11604,01.188,552
2023-06-17T14:44:45,42.805,6.029,CST-1368DR,4286,4681,11594,01.191,552
2023-06-17T14:47:46,42.805,6.029,CST-1368DR,4286,4678,11587,01.194,552
2023-06-17T14:50:48,42.805,6.029,CST-1368DR,4286,4677,11584,01.195,552
2023-06-17T14:53:49,42.805,6.029,CST-1368DR,4286,4678,11585,01.194,552
2023-06-17T14:56:51,42.805,6.029,CST-1368DR,4286,4678,11586,01.194,552
2023-06-17T14:59:52,42.805,6.029,CST-1368DR,4286,4679,11589,01.193,552
2023-06-17T15:02:54,42.805,6.029,CST-1368DR,4286,4686,11606,01.187,552
2023-06-17T15:05:56,42.805,6.029,CST-1368DR,4286,4679,11589,01.193,552
2023-06-17T15:08:57,42.805,6.029,CST-1368DR,4286,4680,11591,01.192,552
2023-06-17T15:11:59,42.805,6.029,CST-1368DR,4286,4679,11589,01.193,552
2023-06-17T15:15:00,42.805,6.029,CST-1368DR,4286,4680,11591,01.192,552
2023-06-17T15:18:02,42.805,6.029,CST-1368DR,4286,4676,11582,01.195,552
2023-06-17T15:21:04,42.805,6.029,CST-1368DR,4286,4677,11584,01.195,552
2023-06-17T15:24:05,42.805,6.029,CST-1368DR,4286,4675,11578,01.197,552
2023-06-17T15:27:07,42.805,6.029,CST-1368DR,4286,4676,11581,01.196,552
2023-06-17T15:30:08,42.805,6.029,CST-1368DR,4286,4678,11586,01.194,552
2023-06-17T15:33:10,42.805,6.029,CST-1368DR,4286,4678,11585,01.194,552
2023-06-17T15:36:11,42.805,6.029,CST-1368DR,4286,4677,11583,01.195,552
2023-06-17T15:39:13,42.805,6.029,CST-1368DR,4286,4679,11587,01.194,552
2023-06-17T15:42:15,42.805,6.029,CST-1368DR,4286,4676,11581,01.196,552
2023-06-17T15:45:16,42.805,6.029,CST-1368DR,4286,4676,11582,01.195,552
2023-06-17T15:48:18,42.805,6.029,CST-1368DR,4286,4677,11583,01.195,552
2023-06-17T15:51:19,42.805,6.029,CST-1368DR,4286,4674,11576,01.197,552
2023-06-17T15:54:21,42.805,6.029,CST-1368DR,4286,4678,11586,01.194,552
2023-06-17T15:57:22,42.805,6.029,CST-1368DR,4286,4678,11586,01.194,552
2023-06-17T16:00:24,42.805,6.029,CST-1368DR,4286,4678,11585,01.194,552
2023-06-17T16:03:26,42.805,6.029,CST-1368DR,4286,4676,11581,01.196,552
2023-06-17T16:06:27,42.805,6.029,CST-1368DR,4286,4676,11582,01.195,552
2023-06-17T16:09:29,42.805,6.029,CST-1368DR,4286,4679,11587,01.194,552
2023-06-17T16:12:30,42.805,6.029,CST-1368DR,4286,4673,11574,01.198,552
2023-06-17T16:15:32,42.805,6.029,CST-1368DR,4286,4675,11579,01.196,552
2023-06-17T16:18:34,42.805,6.029,CST-1368DR,4286,4676,11581,01.196,552
2023-06-17T16:21:35,42.805,6.029,CST-1368DR,4286,4678,11586,01.194,552
2023-06-17T16:24:37,42.805,6.029,CST-1368DR,4286,4671,11568,01.200,552
2023-06-17T16:27:38,42.805,6.029,CST-1368DR,4286,4675,11579,01.196,552
2023-06-17T16:30:41,42.805,6.029,CST-1368DR,4286,4676,11580,01.196,552
2023-06-17T16:33:42,42.805,6.029,CST-1368DR,4286,4676,11582,01.195,552
2023-06-17T16:36:44,42.805,6.029,CST-1368DR,4286,4677,11584,01.195,552